User: anonymous   Login
Location: Nantong Television Tower
(32.0188°N, 120.8512°E)
Time: 05:10:51
(UTC+08:00)
Language:

ATLAS 3B CENTAUR R/B - Orbit

View from above orbital plane
View from above orbital plane
View from above satellite
View from above satellite

Ground track
Ground track

The orbit data is extracted from the following two-line orbital elements,

1 28118U 03057B   15032.20778932  .00086860  00000-0  18429-2 0   449
2 28118 028.1417 025.3766 3716593 136.0015 342.8148 08.05378792213650
Epoch (UTC): 01 February 2015 04:59:12
Eccentricity: 0.3716593
inclination: 28.1417°
perigee height: 228 km
apogee height: 8042 km
right ascension of ascending node: 25.3766°
argument of perigee: 136.0015°
revolutions per day: 8.05378792
mean anomaly at epoch: 342.8148°
orbit number at epoch: 21365

The dashed part of the orbit path shows where the satellite is in the earth's shadow,  

DLR